FW5225 Weather Reports


time (UTC)temp
F
wind
direction
speed
knots
gust
knots
rain 1hr
in
rain 24hr
in
rain mn
in
humidity
%
barometer
mb
20260505074559 69 238 1.7 5.2 0.00 0.00 0.00 44 1010.0
20260505074057 69 233 1.7 5.2 0.00 0.00 0.00 41 1010.0
20260505073557 69 240 0.0 4.3 0.00 0.00 0.00 39 1009.9
20260505073057 69 231 1.7 4.3 0.00 0.00 0.00 39 1009.9
20260505072600 69 238 0.9 5.2 0.00 0.00 0.00 37 1009.6
20260505072056 69 267 0.9 5.2 0.00 0.00 0.00 36 1009.7
20260505071559 69 256 0.9 5.2 0.00 0.00 0.00 36 1009.7
20260505071053 70 253 1.7 6.1 0.00 0.00 0.00 35 1009.6
20260505070552 70 280 2.6 6.1 0.00 0.00 0.00 34 1009.6
20260505065551 70 239 1.7 7.0 0.00 0.00 0.00 33 1009.7
20260505065051 70 239 0.0 4.3 0.00 0.00 0.00 35 1009.6
20260505064555 70 240 0.0 4.3 0.00 0.00 0.00 34 1009.6
20260505064049 70 231 0.0 3.5 0.00 0.00 0.00 35 1009.7
20260505063550 70 261 0.9 3.5 0.00 0.00 0.00 34 1009.4
20260505063049 70 268 0.9 4.3 0.00 0.00 0.00 35 1009.5
20260505062549 70 255 0.9 6.1 0.00 0.00 0.00 35 1009.6
20260505062052 70 290 2.6 5.2 0.00 0.00 0.00 36 1009.5
20260505061610 70 261 0.0 4.3 0.00 0.00 0.00 38 1009.5
20260505061047 70 261 1.7 5.2 0.00 0.00 0.00 39 1009.4
20260505060547 70 259 1.7 4.3 0.00 0.00 0.00 39 1009.4
20260505060053 71 242 0.0 2.6 0.00 0.00 0.00 39 1009.3
20260505055550 71 201 0.9 2.6 0.00 0.00 0.00 39 1009.2
20260505055047 71 225 0.9 3.5 0.00 0.00 0.00 39 1009.1
20260505054549 71 255 0.9 3.5 0.00 0.00 0.00 39 1009.0
20260505054045 71 252 0.9 6.1 0.00 0.00 0.00 39 1009.2
20260505053545 71 223 1.7 6.1 0.00 0.00 0.00 39 1009.2
20260505053045 71 231 0.9 2.6 0.00 0.00 0.00 39 1009.3
20260505052549 71 198 0.9 3.5 0.00 0.00 0.00 39 1009.4
20260505052045 71 227 0.0 3.5 0.00 0.00 0.00 39 1009.2
20260505051544 71 272 1.7 4.3 0.00 0.00 0.00 39 1009.2
20260505051045 71 293 0.9 4.3 0.00 0.00 0.00 39 1009.3
20260505050543 71 297 1.7 4.3 0.00 0.00 0.00 39 1009.5
20260505041540 71 262 0.9 2.6 0.00 0.00 0.00 41 1009.4
20260505041044 71 225 0.9 4.3 0.00 0.00 0.00 41 1009.4
20260505040539 71 260 0.9 4.3 0.00 0.00 0.00 41 1009.3
20260505040055 72 275 0.0 4.3 0.00 0.00 0.00 41 1009.3
20260505035542 72 282 1.7 6.1 0.00 0.00 0.00 41 1009.4
20260505035040 72 234 3.5 6.1 0.00 0.00 0.00 41 1009.3
20260505034542 72 250 2.6 7.0 0.00 0.00 0.00 42 1009.3
20260505034037 72 275 1.7 5.2 0.00 0.00 0.00 42 1009.2
20260505033537 72 241 1.7 4.3 0.00 0.00 0.00 41 1009.2
20260505033037 72 279 0.9 4.3 0.00 0.00 0.00 41 1009.1
20260505032537 72 300 0.9 4.3 0.00 0.00 0.00 41 1008.8
20260505032037 72 251 0.0 2.6 0.00 0.00 0.00 40 1008.8
20260505031546 72 292 0.0 2.6 0.00 0.00 0.00 40 1008.6
20260505031036 72 266 1.7 2.6 0.00 0.00 0.00 40 1008.7
20260505030536 72 281 0.9 4.3 0.00 0.00 0.00 39 1008.6
20260505030040 72 265 0.9 4.3 0.00 0.00 0.00 39 1008.6
20260505025536 72 294 0.9 3.5 0.00 0.00 0.00 38 1008.6
20260505025038 72 271 0.0 3.5 0.00 0.00 0.00 38 1008.5
20260505024537 72 279 0.9 4.3 0.00 0.00 0.00 37 1008.4
20260505024035 72 250 1.7 4.3 0.00 0.00 0.00 36 1008.5
20260505023535 72 264 0.9 3.5 0.00 0.00 0.00 36 1008.5
20260505023035 72 290 1.7 4.3 0.00 0.00 0.00 36 1008.6
20260505022535 73 240 1.7 5.2 0.00 0.00 0.00 35 1008.6
20260505022034 73 259 0.0 5.2 0.00 0.00 0.00 35 1008.6
20260505021536 73 261 0.9 3.5 0.00 0.00 0.00 34 1008.6
20260505021034 73 226 0.9 4.3 0.00 0.00 0.00 34 1008.4
20260505020534 73 257 0.9 4.3 0.00 0.00 0.00 34 1008.4
20260505020040 73 279 0.9 4.3 0.00 0.00 0.00 34 1008.3
20260505015534 73 286 0.9 4.3 0.00 0.00 0.00 34 1008.3
20260505015034 73 186 0.9 5.2 0.00 0.00 0.00 34 1008.3
20260505014536 73 241 1.7 5.2 0.00 0.00 0.00 34 1008.4
20260505014034 73 229 1.7 6.1 0.00 0.00 0.00 33 1008.4
20260505013532 74 270 1.7 5.2 0.00 0.00 0.00 33 1008.5
20260505013033 74 278 0.9 4.3 0.00 0.00 0.00 33 1008.4
20260505012533 74 296 0.9 4.3 0.00 0.00 0.00 33 1008.3
20260505012035 74 286 0.9 5.2 0.00 0.00 0.00 34 1008.2
20260505011534 74 216 0.0 5.2 0.00 0.00 0.00 33 1008.3
20260505011032 74 284 1.7 6.1 0.00 0.00 0.00 34 1008.4
20260505010535 74 263 1.7 7.0 0.00 0.00 0.00 34 1008.5
20260505010033 74 267 2.6 7.0 0.00 0.00 0.00 34 1008.4
20260505005532 74 281 0.9 4.3 0.00 0.00 0.00 34 1008.4
20260505005031 74 198 1.7 4.3 0.00 0.00 0.00 33 1008.4
20260505004532 74 189 0.9 5.2 0.00 0.00 0.00 33 1008.5
20260505004030 74 185 0.9 7.0 0.00 0.00 0.00 34 1008.4
20260505003530 74 241 0.9 5.2 0.00 0.00 0.00 33 1008.5
20260505003030 74 258 1.7 4.3 0.00 0.00 0.00 33 1008.5
20260505002530 75 228 0.9 5.2 0.00 0.00 0.00 33 1008.5
20260505002030 75 286 2.6 5.2 0.00 0.00 0.00 33 1008.6
20260505001530 75 250 1.7 5.2 0.00 0.00 0.00 32 1008.6
20260505001029 75 222 1.7 5.2 0.00 0.00 0.00 33 1008.7
20260505000529 75 165 0.0 5.2 0.00 0.00 0.00 33 1008.6
20260505000042 75 243 1.7 9.6 0.00 0.00 0.00 33 1008.6
20260504235529 76 317 2.6 9.6 0.00 0.00 0.00 34 1008.7
20260504235029 76 202 0.9 7.0 0.00 0.00 0.00 34 1008.6
20260504234528 76 238 0.9 6.1 0.00 0.00 0.00 35 1008.6
20260504234027 76 236 0.9 5.2 0.00 0.00 0.00 35 1008.6
20260504233527 76 176 0.9 6.1 0.00 0.00 0.00 36 1008.6
20260504233027 76 254 2.6 6.1 0.00 0.00 0.00 35 1008.5
20260504232528 77 290 0.9 6.1 0.00 0.00 0.00 35 1008.7
20260504232027 77 217 1.7 6.1 0.00 0.00 0.00 35 1008.7
20260504231527 77 231 0.9 6.1 0.00 0.00 0.00 34 1008.6
20260504231027 77 229 0.9 6.1 0.00 0.00 0.00 36 1008.6
20260504230527 77 283 1.7 6.1 0.00 0.00 0.00 35 1008.5
20260504230026 77 190 1.7 5.2 0.00 0.00 0.00 36 1008.6
20260504225531 77 265 2.6 5.2 0.00 0.00 0.00 36 1008.6
20260504225026 77 281 1.7 6.1 0.00 0.00 0.00 35 1008.5
20260504224526 77 225 1.7 6.1 0.00 0.00 0.00 36 1008.7
20260504224025 77 189 0.9 5.2 0.00 0.00 0.00 36 1008.7
20260504223525 77 192 1.7 6.1 0.00 0.00 0.00 35 1008.8
20260504223025 76 156 0.9 7.0 0.00 0.00 0.00 36 1008.9
20260504222524 76 294 1.7 7.0 0.00 0.00 0.00 36 1008.9
20260504222024 77 252 2.6 6.1 0.00 0.00 0.00 35 1009.0
20260504221527 77 213 0.9 6.1 0.00 0.00 0.00 37 1009.0
20260504221024 77 186 1.7 6.1 0.00 0.00 0.00 36 1009.0
20260504220524 77 279 0.9 7.0 0.00 0.00 0.00 36 1009.1
20260504220040 76 275 0.9 6.1 0.00 0.00 0.00 35 1009.2
20260504215523 77 182 1.7 6.1 0.00 0.00 0.00 37 1009.2
20260504215026 76 234 1.7 6.1 0.00 0.00 0.00 37 1009.3
20260504214524 76 254 2.6 7.0 0.00 0.00 0.00 37 1009.3
20260504214022 77 232 2.6 7.0 0.00 0.00 0.00 37 1009.3
20260504213524 77 214 1.7 5.2 0.00 0.00 0.00 39 1009.5
20260504213022 76 188 0.9 5.2 0.00 0.00 0.00 40 1009.7
20260504212521 76 198 1.7 6.1 0.00 0.00 0.00 40 1009.7
20260504212024 75 193 1.7 7.8 0.00 0.00 0.00 40 1009.7
20260504211521 75 201 3.5 7.8 0.00 0.00 0.00 39 1009.8
20260504211019 75 244 1.7 7.0 0.00 0.00 0.00 41 1009.9
20260504210519 75 296 0.9 6.1 0.00 0.00 0.00 41 1010.0
20260504210019 74 224 1.7 7.0 0.00 0.00 0.00 42 1010.0
20260504205519 74 180 2.6 7.0 0.00 0.00 0.00 42 1010.1
20260504205019 74 279 1.7 4.3 0.00 0.00 0.00 42 1009.9
20260504204533 74 204 1.7 3.5 0.00 0.00 0.00 42 1009.9
20260504204018 74 202 0.9 6.1 0.00 0.00 0.00 42 1010.0
20260504203518 74 207 1.7 7.8 0.00 0.00 0.00 41 1010.1
20260504203017 74 195 0.9 7.0 0.00 0.00 0.00 42 1010.2
20260504202518 74 224 2.6 7.0 0.00 0.00 0.00 41 1010.5
20260504202017 74 191 1.7 5.2 0.00 0.00 0.00 41 1010.4
20260504201517 74 225 0.9 5.2 0.00 0.00 0.00 41 1010.4
20260504201017 73 270 0.0 6.1 0.00 0.00 0.00 42 1010.5
20260504200517 73 244 2.6 6.1 0.00 0.00 0.00 41 1010.5
20260504200016 72 242 0.9 7.0 0.00 0.00 0.00 41 1010.5
20260504195516 72 271 4.3 7.0 0.00 0.00 0.00 41 1010.4
20260504195015 72 225 0.9 6.1 0.00 0.00 0.00 40 1010.4
20260504194516 72 223 2.6 6.1 0.00 0.00 0.00 40 1010.6
20260504194014 72 267 2.6 6.1 0.00 0.00 0.00 39 1010.6
20260504193515 72 306 3.5 6.1 0.00 0.00 0.00 39 1010.6
20260504193015 72 285 1.7 5.2 0.00 0.00 0.00 40 1010.2
20260504192514 72 273 0.9 7.8 0.00 0.00 0.00 40 1010.5
20260504192013 71 242 3.5 7.8 0.00 0.00 0.00 40 1010.8
20260504191513 71 242 1.7 4.3 0.00 0.00 0.00 40 1010.4
20260504191014 71 198 0.9 7.8 0.00 0.00 0.00 40 1009.9
20260504190516 71 296 2.6 7.8 0.00 0.00 0.00 41 1010.2
20260504190014 71 262 1.7 5.2 0.00 0.00 0.00 41 1010.1
20260504185512 71 294 1.7 5.2 0.00 0.00 0.00 40 1010.3
20260504185016 71 207 0.9 7.0 0.00 0.00 0.00 40 1009.9
20260504184512 71 281 0.9 7.0 0.00 0.00 0.00 41 1010.2
20260504184015 71 258 1.7 7.0 0.00 0.00 0.00 41 1010.2
20260504183512 70 319 2.6 7.0 0.00 0.00 0.00 42 1010.4
20260504183011 70 218 2.6 9.6 0.00 0.00 0.00 42 1010.3
20260504182510 70 301 5.2 9.6 0.00 0.00 0.00 43 1010.4
20260504182010 70 287 5.2 9.6 0.00 0.00 0.00 43 1010.7
20260504181516 70 263 5.2 9.6 0.00 0.00 0.00 43 1010.6
20260504181010 70 245 2.6 9.6 0.00 0.00 0.00 45 1010.6
20260504180510 70 266 4.3 7.8 0.00 0.00 0.00 43 1010.7
20260504180010 70 269 2.6 7.8 0.00 0.00 0.00 44 1010.5
20260504175509 69 281 2.6 13.9 0.00 0.00 0.00 44 1010.3
20260504175011 69 265 3.5 13.9 0.00 0.00 0.00 45 1010.5
20260504174507 69 290 3.5 9.6 0.00 0.00 0.00 46 1010.5
20260504174007 69 281 5.2 9.6 0.00 0.00 0.00 46 1010.5
20260504173505 69 278 3.5 8.7 0.00 0.00 0.00 47 1010.4
20260504173005 69 227 3.5 11.3 0.00 0.00 0.00 48 1010.3
20260504172505 69 228 5.2 11.3 0.00 0.00 0.00 49 1010.4
20260504172008 69 250 5.2 10.4 0.00 0.00 0.00 50 1010.4
20260504171507 69 186 4.3 9.6 0.00 0.00 0.00 50 1010.1
20260504171005 69 232 1.7 7.0 0.00 0.00 0.00 51 1009.8
20260504170501 69 294 3.5 7.8 0.00 0.00 0.00 50 1009.7
20260504151048 68 267 4.3 10.4 0.00 0.00 0.00 53 1009.7
20260504150547 68 254 5.2 9.6 0.00 0.00 0.00 52 1009.6
20260504141034 69 290 1.7 6.1 0.00 0.00 0.00 46 1008.9
20260504140534 69 220 0.9 5.2 0.00 0.00 0.00 46 1008.8
20260504130524 69 298 1.7 7.0 0.00 0.00 0.00 44 1008.3
20260504110511 71 273 0.0 2.6 0.00 0.00 0.00 39 1007.7
20260504100505 72 209 0.0 2.6 0.00 0.00 0.00 37 1007.6
20260504081556 74 221 0.9 6.1 0.00 0.00 0.00 34 1007.1
20260504081056 74 253 0.9 6.1 0.00 0.00 0.00 34 1007.1
20260504080555 75 299 0.9 6.1 0.00 0.00 0.00 34 1007.2